Theta_e
292 293 293 293 292 292 292 293 294 293 295 296 294 291 294 297 291 288 296 300 295 295 297 300 300 300 301 303 305 307 308 308 308 308 307 307 308 309 309 310 310 310 310 310 311 313 315 317 318 320 320 320 321 322 323 323 324 324 325 325 324 324 325 324 325 326 326 326 327 326 326 324 325 325 325 326 326 328 327 328 328 327 328 327 327 326 326
291 292 293 294 292 291 292 292 293 294 295 294 295 295 296 297 296 298 298 295 293 295 298 300 300 302 302 304 307 307 307 306 305 305 305 306 306 307 307 307 308 308 308 308 309 310 311 312 313 315 317 319 320 321 322 322 322 323 324 324 323 323 323 324 325 325 326 326 326 326 324 323 324 324 324 327 329 328 327 327 328 327 327 327 326 326 326
287 290 292 293 293 292 290 292 293 294 294 295 295 295 296 297 297 297 297 294 291 296 301 300 301 303 303 304 304 304 305 304 304 304 304 305 305 305 306 307 307 307 307 307 307 307 308 309 310 311 314 316 318 320 321 321 321 323 323 323 323 323 324 324 324 324 324 324 324 324 324 324 323 323 326 327 328 327 326 326 326 327 327 326 326 325 325
286 289 290 290 291 291 291 291 291 292 291 290 292 290 293 295 292 295 295 292 289 295 300 301 302 300 298 297 300 301 301 301 302 302 303 304 304 305 305 305 306 306 306 306 306 307 307 308 309 309 310 311 314 316 319 321 322 322 323 322 322 322 322 323 323 323 324 323 323 324 324 324 324 325 325 326 326 325 326 326 327 328 327 325 325 326 326
287 290 290 290 289 290 285 287 291 290 290 291 289 290 291 291 294 292 290 291 295 296 298 297 296 295 294 295 296 297 297 299 300 300 301 302 303 304 304 304 304 304 304 304 305 306 307 307 307 308 309 310 310 311 313 317 319 319 318 319 319 320 321 322 323 323 323 322 322 323 323 323 323 324 325 325 324 325 324 325 327 327 326 326 326 326 326
287 289 290 291 287 280 283 288 289 292 291 290 290 288 289 290 292 290 294 294 296 297 297 295 294 293 292 292 293 296 297 296 295 296 297 298 299 300 301 302 303 304 304 305 305 305 305 306 307 309 310 309 309 311 311 311 311 311 311 311 313 314 317 319 322 324 324 324 323 323 323 323 323 323 324 324 326 326 325 324 323 323 325 325 325 325 324
286 289 289 284 279 283 289 292 294 293 293 293 289 288 290 291 292 293 292 291 292 292 293 292 292 292 292 292 291 291 293 295 295 295 295 296 297 297 298 299 300 301 302 303 304 304 305 305 306 307 306 308 309 309 310 310 311 311 311 310 311 311 311 312 314 316 318 320 323 325 323 323 323 323 324 325 325 322 322 322 322 321 322 321 323 324 322
289 286 286 277 281 286 290 291 293 295 294 293 292 289 290 292 293 294 292 292 291 291 290 290 290 291 292 292 293 293 291 292 291 291 291 293 295 295 298 299 300 301 301 301 303 303 304 304 304 305 306 307 307 308 309 309 309 310 310 310 310 311 310 310 311 311 312 314 317 319 320 321 321 321 322 324 324 324 322 323 323 322 321 320 319 318 317
284 286 285 284 285 286 286 287 289 291 289 290 290 285 286 291 293 294 293 292 292 292 292 292 292 293 293 291 291 294 295 295 296 297 295 295 292 294 296 298 298 300 301 302 303 303 302 302 302 303 305 306 305 305 306 306 307 308 309 309 309 310 310 310 311 311 311 311 312 314 315 317 318 319 321 322 323 323 322 322 320 319 318 317 317 316 316
287 286 285 283 282 280 284 289 291 293 293 293 293 290 284 290 292 294 294 292 292 292 293 293 294 296 293 289 289 293 295 296 297 297 297 298 298 297 297 299 299 300 301 303 303 303 303 303 303 303 304 304 305 305 305 305 305 306 307 308 308 308 309 310 310 310 310 311 310 311 313 313 316 318 319 320 320 319 318 316 315 316 317 315 315 313 312
285 284 282 281 280 281 287 289 290 292 292 294 294 290 285 289 291 292 293 292 292 293 293 293 294 294 292 289 291 294 295 295 296 296 296 297 298 298 298 298 299 299 300 301 301 302 303 302 302 304 303 304 303 303 304 305 305 305 305 306 307 307 308 309 309 310 310 310 311 311 310 312 315 315 316 316 317 317 316 315 315 314 312 312 311 312 313
286 285 283 282 285 282 286 289 290 291 294 291 292 281 283 289 292 293 293 292 292 292 293 294 294 291 290 289 291 294 295 296 296 296 296 296 297 297 298 299 299 300 300 300 300 300 301 301 303 303 302 303 303 303 302 304 304 304 305 306 306 307 308 309 310 310 311 310 310 311 311 312 313 313 314 314 315 314 314 313 312 311 310 310 310 311 314
286 284 285 286 283 287 290 290 291 292 292 291 282 280 285 291 292 293 294 294 294 294 293 294 289 291 292 292 294 295 295 295 295 297 298 297 297 297 297 297 297 298 299 299 299 299 300 301 302 302 302 302 301 302 302 303 303 304 305 306 306 306 307 307 308 309 309 310 311 311 311 311 312 313 314 313 314 313 312 312 311 310 310 311 311 312 313
285 286 284 283 284 287 291 292 293 294 290 282 282 287 293 293 292 294 294 293 294 295 294 294 293 293 294 294 295 295 295 295 296 296 296 297 297 298 298 297 297 297 298 299 299 300 300 301 302 302 302 301 301 301 301 302 304 304 305 305 306 305 306 306 307 308 309 310 310 312 312 312 311 311 312 313 313 313 310 311 312 311 312 311 311 311 313
284 285 282 281 277 284 291 292 291 291 286 285 289 292 293 294 293 293 294 294 294 295 293 294 294 294 294 295 295 296 296 296 296 296 296 296 296 296 297 297 297 296 297 297 297 299 299 300 301 302 302 300 300 301 300 303 304 303 304 304 304 305 305 305 306 307 308 309 309 310 310 311 311 310 311 312 313 313 312 312 312 311 312 311 311 311 311
282 282 280 280 285 288 294 292 286 290 291 292 294 293 292 294 295 294 293 294 295 295 294 293 294 295 294 295 295 295 295 295 295 295 296 296 296 296 296 296 296 295 295 296 297 298 299 299 300 301 301 300 300 300 300 304 304 303 303 303 304 304 304 305 305 305 306 306 308 309 309 308 309 310 310 311 311 312 312 310 309 310 308 310 309 308 308
285 283 284 287 291 292 294 294 293 294 295 296 295 295 294 293 293 296 294 293 294 294 294 294 294 293 294 293 294 293 293 293 293 293 293 293 294 294 294 294 295 294 294 295 295 296 298 298 299 299 300 300 300 299 302 303 302 302 302 302 303 302 303 303 304 304 305 305 306 307 308 307 307 307 309 310 309 310 310 310 309 309 308 309 308 308 307
290 291 291 292 292 292 293 295 295 294 294 295 295 294 292 293 293 294 293 293 293 293 293 292 293 292 292 292 292 292 292 292 292 292 292 292 292 293 293 293 293 293 294 294 294 295 296 297 297 298 299 299 298 300 302 302 302 302 302 301 301 301 302 303 303 303 303 304 304 305 306 306 306 306 307 307 307 308 308 308 308 309 308 307 307 307 307
287 281 291 290 290 292 293 292 293 293 293 292 292 291 291 291 291 291 292 292 292 292 291 291 290 290 290 290 290 290 289 289 289 290 290 290 290 290 290 291 292 292 293 293 293 294 294 296 296 297 298 299 299 299 300 301 301 301 301 301 300 300 301 301 302 303 303 303 303 304 305 304 305 306 305 306 307 305 307 308 308 307 307 307 307 306 306
285 285 289 291 292 293 294 293 291 291 292 292 293 292 293 292 293 293 293 293 292 292 291 290 289 289 290 289 289 288 289 289 289 290 290 290 291 292 292 293 293 293 293 293 293 293 293 294 295 295 296 297 298 299 299 300 300 300 300 300 300 300 301 301 301 301 301 294 298 301 301 302 303 304 304 305 305 305 305 307 306 305 307 305 305 306 307
288 290 290 290 291 291 291 293 295 294 294 293 294 294 294 294 293 293 294 294 293 292 291 291 291 290 290 290 290 289 290 290 290 290 291 291 292 292 292 293 292 292 292 292 292 292 292 294 294 295 295 296 297 298 298 299 299 298 298 298 299 299 300 300 300 300 301 301 300 301 301 302 303 303 303 304 304 305 307 308 307 307 308 308 306 307 308
283 284 286 290 284 284 289 291 293 294 294 294 294 294 293 293 293 293 293 293 293 293 292 291 291 290 290 291 291 290 290 291 291 291 291 291 292 292 292 292 292 292 292 292 291 291 292 294 294 294 295 295 296 297 297 297 297 297 296 296 297 298 298 299 299 299 300 300 301 301 301 301 301 302 295 295 299 303 305 293 287 289 291 303 308 307 308
283 289 290 292 291 291 292 293 294 295 295 294 293 293 293 293 293 293 292 292 292 292 292 292 291 291 290 291 291 291 291 291 291 292 292 291 291 290 291 291 291 291 291 291 291 291 292 293 293 293 294 295 295 296 296 296 296 296 296 295 295 295 296 297 296 298 298 298 299 299 300 300 301 300 301 302 291 290 293 294 293 289 287 288 288 289 298
290 292 292 292 291 289 291 293 294 294 295 294 293 293 293 292 293 293 292 292 290 290 291 291 292 291 291 291 291 290 290 291 291 291 291 290 290 290 290 290 290 290 290 290 290 291 292 292 292 293 293 294 295 295 296 296 296 296 295 294 294 295 295 295 295 294 297 297 298 298 298 298 298 299 299 299 301 291 287 289 288 288 288 288 288 289 289
288 292 293 293 292 292 294 294 294 294 295 294 293 292 293 292 292 292 291 291 291 290 290 290 291 291 290 290 290 290 289 289 289 289 289 289 289 289 290 290 290 290 290 290 291 292 292 292 292 292 292 293 294 294 295 295 295 295 295 295 295 294 295 295 295 295 294 295 296 297 297 297 298 298 298 298 297 299 296 286 286 288 288 288 288 288 288
292 293 293 293 293 293 294 293 293 294 294 294 293 293 293 292 291 292 291 291 291 291 290 290 290 291 291 290 290 289 289 289 288 288 289 289 289 289 289 289 290 290 291 291 292 292 292 292 292 292 292 292 293 294 294 294 294 293 293 293 294 295 295 294 294 294 295 295 295 295 296 297 297 297 297 297 297 297 298 299 295 291 288 287 288 288 288
293 293 292 291 290 291 292 291 289 294 293 293 293 293 293 293 291 292 292 292 291 291 291 291 290 291 291 291 290 289 288 288 289 290 290 289 289 289 290 291 291 291 291 291 290 290 289 290 291 291 291 292 293 293 293 293 293 293 294 294 294 291 288 289 294 295 295 295 295 295 295 295 295 295 295 297 296 296 296 297 298 297 297 299 289 290 297
293 293 293 288 287 289 291 292 293 294 293 293 292 292 292 292 291 290 290 290 290 290 290 290 290 290 290 290 290 289 289 289 289 289 289 289 290 291 291 291 290 290 290 290 290 290 290 290 291 291 291 292 292 292 292 292 293 293 294 294 294 294 294 293 293 293 293 294 294 294 294 294 295 294 294 294 294 295 295 295 296 297 298 300 298 288 287
293 293 293 293 292 293 294 294 294 292 292 293 293 292 291 290 290 289 289 289 290 289 289 290 290 290 290 290 290 288 288 289 289 289 289 290 290 289 289 289 289 290 290 290 290 290 290 291 292 291 291 293 292 292 292 292 293 293 293 293 293 293 293 293 293 293 293 293 294 294 290 292 293 293 293 293 293 294 295 296 295 296 297 301 299 296 293
293 293 293 293 293 293 292 291 291 291 291 291 291 290 291 290 288 289 289 289 289 289 289 290 290 290 290 290 290 289 288 288 289 290 290 290 290 290 290 290 290 291 291 291 291 291 291 292 292 291 291 292 292 292 292 293 293 293 293 293 293 293 293 293 293 292 292 292 292 289 290 291 292 292 292 292 292 291 291 291 293 294 296 299 296 297 296
293 293 293 293 293 292 291 290 291 291 291 291 290 290 289 289 288 288 288 289 289 289 289 289 290 290 290 290 290 290 290 290 290 290 290 290 290 289 289 288 287 287 288 290 291 292 292 292 291 290 291 291 291 292 293 293 293 293 294 294 294 290 287 286 287 290 291 291 290 291 291 291 291 291 290 290 290 290 291 291 293 294 295 297 297 298 298
292 292 293 292 292 291 291 291 290 290 290 290 290 289 289 287 287 287 288 287 288 288 288 288 288 288 289 290 289 289 288 287 286 286 286 287 286 285 285 286 287 287 288 289 289 291 292 291 291 291 292 293 293 295 295 294 293 293 293 291 293 293 290 287 290 290 291 290 291 290 289 290 290 290 289 290 290 290 290 290 291 293 295 294 296 299 298
290 289 289 290 290 290 290 290 289 289 289 289 289 290 290 289 288 288 288 288 288 288 287 287 287 287 288 287 287 286 286 286 285 285 285 285 285 285 285 287 288 288 288 291 292 294 294 293 294 295 296 296 296 296 296 295 294 293 294 294 293 292 289 289 288 290 291 290 290 290 290 289 289 290 289 289 290 290 290 290 291 293 294 297 298 299 297
290 289 289 291 291 289 289 289 290 290 290 290 291 290 289 289 289 289 289 288 288 287 287 287 287 287 286 286 286 286 285 286 288 287 284 284 285 285 286 287 288 289 290 293 295 295 295 296 296 295 295 297 297 297 297 297 296 295 294 294 293 292 291 291 291 291 289 289 290 289 290 288 290 289 288 288 290 289 289 290 292 293 294 295 296 295 289
293 292 293 293 293 292 292 291 291 290 290 289 289 290 290 290 290 290 290 290 288 287 288 288 286 285 284 285 285 285 284 284 284 283 284 285 285 285 287 287 288 291 292 293 293 293 295 296 295 293 293 296 298 298 297 296 298 297 296 295 294 293 292 291 290 289 289 289 289 289 288 289 288 287 287 288 288 288 288 290 292 293 293 292 292 292 290
293 292 293 293 293 292 292 292 292 291 291 290 287 288 290 290 290 290 290 290 291 289 289 287 286 284 284 284 285 284 284 284 284 284 284 284 285 287 287 286 286 288 288 289 293 293 294 296 288 286 290 296 297 298 296 292 296 298 297 296 294 293 293 291 291 290 290 290 289 288 288 287 288 288 288 289 290 291 291 290 290 291 291 291 290 289 289
293 293 293 293 293 293 292 292 292 292 291 291 290 290 290 291 291 291 291 290 289 289 288 287 285 284 285 285 285 285 284 285 286 286 286 285 286 286 286 286 286 287 288 289 290 291 294 294 287 284 292 297 297 298 295 286 294 297 298 297 296 295 293 292 291 291 291 290 289 290 289 289 289 289 289 290 290 290 290 289 289 290 289 289 289 289 290
293 294 294 294 294 293 292 293 293 292 292 291 292 291 291 291 291 291 291 290 288 289 289 286 285 285 286 285 284 284 284 284 284 284 284 284 285 286 287 287 288 288 288 287 287 290 293 291 286 291 297 296 297 297 293 286 285 296 298 296 295 294 293 293 292 291 291 291 289 289 289 289 288 288 289 289 289 289 288 289 289 290 289 290 290 291 291
293 294 294 294 294 293 293 293 293 293 293 291 291 292 292 291 292 292 291 291 291 291 290 289 289 289 288 287 286 286 285 285 284 284 284 284 285 286 287 286 286 287 288 288 288 290 292 289 291 295 295 296 296 297 292 287 286 297 298 298 296 295 293 292 292 291 290 291 290 290 290 289 289 288 288 288 288 288 287 287 288 289 289 289 290 290 290
293 293 293 294 293 293 293 292 292 292 293 293 292 292 292 292 292 292 292 292 292 290 289 290 290 289 288 287 286 286 287 288 289 288 287 286 286 286 287 287 288 289 290 287 291 291 288 285 290 295 295 295 295 294 294 289 288 295 297 297 296 295 294 293 292 292 292 292 291 289 290 289 289 288 288 288 288 288 289 288 288 288 288 288 288 288 287
293 293 294 293 293 293 292 292 291 292 293 293 292 293 293 293 293 292 292 292 291 291 290 290 290 289 288 287 286 286 287 289 289 289 289 289 288 289 289 288 289 290 289 289 290 290 289 289 291 293 294 294 294 289 293 290 294 296 297 296 296 296 294 293 292 292 291 291 291 291 290 290 290 290 289 290 290 289 288 288 287 287 287 287 287 287 287
293 293 293 293 293 293 292 293 293 292 292 293 292 293 294 294 293 292 293 292 291 290 290 290 288 290 290 288 287 286 287 289 289 289 289 289 288 289 288 289 290 290 285 287 288 289 292 292 292 290 291 292 292 287 284 291 295 295 295 295 295 294 294 293 293 292 292 292 291 291 291 291 290 290 290 290 290 289 289 289 289 289 289 288 287 287 287
294 293 293 293 293 293 293 293 292 292 292 293 293 294 294 294 294 294 293 292 291 290 289 290 290 287 288 288 287 286 286 288 289 290 290 290 290 289 288 289 291 289 284 287 290 292 291 292 291 290 285 286 288 285 285 293 295 295 294 294 294 293 293 293 293 293 293 293 292 292 291 291 290 290 289 290 289 290 290 290 290 290 290 290 290 289 289
294 293 293 293 293 294 294 293 293 292 291 292 293 294 294 294 294 294 293 292 291 290 289 289 290 290 289 289 288 286 286 286 287 289 289 289 289 289 290 290 290 287 283 287 290 291 291 291 290 285 283 284 284 284 290 293 294 294 293 293 292 292 292 293 293 292 292 292 292 292 292 291 290 290 290 289 289 289 289 290 290 290 291 291 291 291 291
294 294 294 294 294 294 293 293 293 293 293 293 293 294 294 294 294 294 294 293 291 290 289 289 289 289 290 289 289 289 288 288 289 289 288 288 287 288 290 286 288 288 286 285 289 290 290 289 285 282 283 283 284 285 291 291 291 291 292 292 292 292 291 291 291 291 291 292 291 291 290 291 291 291 290 289 287 288 288 288 288 289 289 289 289 289 290
294 294 294 291 294 294 294 294 295 295 295 294 294 293 293 293 294 294 294 293 292 292 291 290 289 289 290 290 290 290 289 288 288 289 290 290 289 289 289 287 288 285 283 284 289 290 289 281 281 282 282 284 284 289 291 290 290 290 291 290 290 289 290 290 290 290 289 289 289 289 290 289 288 288 288 288 288 287 287 286 287 287 287 287 287 287 287
294 294 294 294 294 295 295 295 295 295 294 294 292 292 293 293 293 294 294 295 294 293 292 292 291 290 291 291 290 289 288 288 288 289 289 290 288 287 287 284 284 284 285 288 289 288 287 286 284 282 282 283 284 291 290 290 290 291 290 290 290 290 289 290 289 289 289 288 287 287 286 287 287 288 287 286 286 286 286 286 286 286 286 286 286 285 285
293 293 294 294 293 294 296 295 294 293 293 292 293 293 294 294 295 294 295 295 295 294 293 293 292 291 291 290 291 291 290 289 287 288 289 290 290 290 289 290 287 284 283 283 283 283 279 280 281 281 282 282 289 290 290 290 290 290 289 290 290 289 289 289 289 289 289 289 289 289 288 287 287 286 286 285 285 285 285 285 285 284 285 285 284 285 284
291 291 293 294 294 295 294 294 293 292 293 293 293 293 294 294 294 295 294 294 294 294 293 293 293 292 291 290 290 290 290 290 289 288 290 290 290 289 289 285 282 281 285 288 288 287 282 280 281 281 282 284 290 290 289 289 289 288 288 288 287 287 287 287 288 288 289 289 289 288 289 288 287 286 285 285 285 285 285 284 284 284 284 284 283 283 283
292 292 292 292 293 293 293 292 292 292 293 293 293 293 294 294 292 293 294 294 294 292 294 293 293 293 293 291 291 291 291 290 289 289 289 289 289 289 288 287 287 284 285 288 288 286 282 279 281 283 285 289 289 288 289 289 289 288 287 287 286 286 285 285 284 284 286 287 287 286 287 287 287 286 286 286 285 285 284 284 283 282 282 283 283 283 283
293 291 292 292 293 294 294 293 293 293 294 293 294 294 294 293 292 292 294 294 294 293 293 293 293 293 293 292 292 291 291 291 289 287 288 289 289 287 286 288 286 285 285 286 287 288 288 289 288 286 287 288 288 288 288 288 287 287 286 287 286 286 286 286 286 286 287 285 286 285 285 286 286 287 287 286 286 286 285 285 285 285 285 285 284 284 284
293 293 294 293 294 294 294 294 294 294 294 294 294 294 294 293 292 293 293 290 294 293 294 293 292 293 294 293 292 292 292 291 290 289 287 289 288 289 286 285 287 286 285 288 288 288 288 287 285 284 285 288 288 287 284 284 287 287 286 285 285 286 286 286 286 286 286 286 286 285 285 285 285 285 284 284 284 285 285 285 285 286 286 286 285 284 284
Wind_Speed
7 7 9 9 10 9 8 9 8 9 8 6 4 5 6 7 2 2 6 9 12 9 8 7 8 6 7 8 8 9 11 11 11 11 10 11 11 11 12 12 12 12 12 12 12 11 11 11 10 9 8 7 6 5 6 5 4 4 3 2 3 4 5 5 5 5 5 5 5 7 5 5 5 6 8 8 9 7 7 7 6 7 7 7 7 7 7
6 8 8 8 10 5 7 8 8 9 10 10 9 8 7 7 6 7 9 14 13 8 7 8 8 7 8 9 9 9 11 11 10 11 11 11 11 12 12 12 13 13 14 13 13 13 12 12 11 10 8 7 7 6 6 5 5 4 3 3 3 3 3 3 3 4 5 5 6 6 7 7 5 7 10 10 8 7 8 7 5 5 6 7 7 7 6
4 4 2 4 5 2 3 4 5 6 5 7 8 7 6 5 8 8 11 12 11 7 6 8 8 8 8 9 11 11 10 9 10 11 11 11 12 12 13 13 13 13 14 14 13 14 13 12 12 10 9 8 7 7 6 6 5 4 4 4 3 2 3 3 3 3 3 4 4 5 7 8 9 11 10 8 8 8 7 6 7 7 6 7 7 6 6
4 5 3 3 4 4 2 5 4 5 6 3 5 4 5 4 4 5 7 7 5 7 7 8 9 10 10 11 11 10 9 10 10 11 11 12 12 12 13 13 13 14 14 13 13 13 12 12 12 10 9 9 9 8 6 6 5 5 5 4 4 3 3 3 2 2 2 3 3 4 4 5 6 6 6 6 7 7 6 6 6 6 6 6 5 4 4
7 10 4 2 1 2 4 6 4 4 4 5 6 5 6 5 6 2 1 6 8 9 8 10 10 10 10 11 10 11 12 11 11 12 12 12 12 12 12 13 13 13 13 13 13 12 11 11 10 11 10 10 10 8 8 6 5 5 5 4 4 3 2 2 2 1 1 2 3 3 4 4 4 4 5 6 6 5 6 5 4 4 5 5 5 5 5
2 5 4 1 4 8 6 5 2 1 2 4 4 3 4 4 4 3 5 9 9 9 9 11 11 12 11 10 10 10 8 10 12 12 12 12 12 13 13 13 13 12 12 11 11 12 11 10 10 9 9 9 8 8 7 7 7 6 6 6 5 5 4 3 2 2 2 1 1 2 2 3 4 4 5 6 5 4 4 4 4 4 4 5 5 5 4
3 6 7 7 10 8 7 1 4 3 2 7 12 9 7 6 6 8 11 10 9 10 10 12 13 13 13 14 14 14 14 12 12 12 13 12 12 13 13 14 13 13 13 13 12 11 10 9 8 9 9 8 7 7 6 7 6 6 6 6 6 5 5 4 3 2 2 3 2 2 2 2 4 5 5 5 5 5 6 6 5 5 5 6 4 5 6
3 5 8 7 3 5 2 5 4 5 6 9 11 11 9 7 5 7 9 10 11 11 12 12 12 14 14 13 12 10 6 9 8 9 8 8 11 10 10 11 11 12 12 12 11 10 9 9 9 9 9 7 7 6 5 5 5 5 4 5 5 5 5 5 4 3 2 2 1 2 3 4 4 5 6 6 6 6 6 5 4 1 3 4 7 8 8
5 6 10 1 4 5 5 4 6 1 3 2 2 2 4 4 3 5 10 12 12 12 12 12 12 13 11 11 10 10 10 9 8 8 8 6 4 7 11 10 10 10 10 10 10 10 10 11 10 9 7 6 6 6 7 6 5 4 3 4 4 4 3 4 4 4 3 1 2 2 3 4 5 5 5 6 6 6 6 6 7 9 10 9 8 8 8
2 4 6 4 5 5 5 4 6 3 2 4 3 3 5 3 4 6 10 11 11 11 11 10 8 6 7 7 7 8 8 8 9 10 10 9 9 8 7 7 8 9 8 8 8 7 7 7 8 8 8 7 6 6 6 5 4 5 4 5 5 4 4 3 3 3 3 3 1 1 3 3 4 4 5 5 6 6 7 8 9 8 8 7 7 7 7
3 3 6 7 7 2 4 6 3 5 2 3 2 4 5 6 5 4 8 9 9 9 8 7 3 4 5 5 6 6 7 8 8 9 9 9 9 9 10 10 9 9 8 8 8 8 9 10 10 10 10 9 8 7 6 5 5 6 6 6 6 5 5 5 4 3 3 3 3 3 2 1 1 4 5 6 6 6 6 6 7 7 8 7 7 7 6
5 7 7 7 0 3 2 3 2 4 4 1 4 5 5 9 7 6 6 7 6 4 2 2 1 5 3 7 6 5 6 7 8 9 9 9 9 9 9 10 9 8 8 9 9 9 9 9 8 9 9 8 7 6 7 5 5 6 6 6 6 5 5 5 4 4 3 4 3 3 4 3 2 3 4 5 7 7 7 7 7 7 8 7 8 7 7
5 8 7 2 4 4 4 3 3 3 2 3 4 6 7 8 8 6 7 7 5 4 3 1 3 7 8 8 7 5 6 6 8 8 8 8 8 9 9 9 9 8 8 8 8 8 7 8 7 7 7 7 6 6 6 5 5 6 6 5 5 5 5 4 5 5 4 4 5 5 4 3 3 3 4 5 6 7 8 8 8 8 9 8 8 8 7
5 6 7 2 4 3 4 3 3 1 3 5 3 6 5 9 9 8 8 10 9 8 9 7 8 8 8 8 6 6 6 7 6 6 7 7 7 7 7 8 8 8 7 7 7 8 7 8 7 6 6 6 6 6 6 5 4 4 5 5 5 5 5 5 4 4 4 4 4 3 4 4 4 4 4 5 6 8 8 8 10 10 9 9 8 8 7
0 2 5 4 5 4 3 4 3 1 5 4 6 8 9 8 9 9 9 8 8 7 8 8 7 7 7 6 6 6 6 6 7 7 8 8 8 8 8 8 8 8 8 7 7 7 7 6 6 6 6 6 6 5 6 5 4 6 6 6 6 6 5 6 5 4 3 3 3 3 3 4 5 6 5 5 7 8 8 8 10 10 9 8 8 8 7
4 6 6 1 5 3 3 5 1 7 8 7 7 8 9 7 7 7 7 8 7 7 6 6 6 6 5 6 6 6 6 6 7 7 7 7 7 7 7 7 7 9 8 7 7 7 7 6 6 6 5 6 6 6 8 4 4 5 6 6 7 7 6 6 6 5 5 4 2 2 2 3 4 5 6 6 6 7 8 9 10 10 9 8 9 9 9
3 5 4 4 3 5 5 9 10 10 9 7 7 7 7 7 6 4 6 7 7 7 6 5 5 4 6 6 5 6 6 6 7 7 8 7 7 8 8 8 7 8 8 8 8 7 6 6 6 6 6 6 7 8 7 5 6 7 6 7 7 7 7 7 6 6 6 6 5 5 3 3 3 4 5 6 7 8 8 9 11 10 8 9 10 10 10
10 10 9 8 7 8 9 8 9 10 10 8 8 7 7 8 8 6 6 6 6 6 7 5 5 5 5 5 5 5 6 6 6 6 6 6 7 7 8 7 8 8 8 8 8 8 7 7 7 6 6 6 8 8 7 7 7 7 7 8 8 8 8 7 7 7 7 7 7 7 6 5 5 4 5 5 7 8 9 10 11 11 11 12 12 10 10
3 4 6 8 9 9 9 8 8 8 7 7 7 8 7 6 5 6 6 5 5 5 5 5 4 4 4 4 4 5 5 5 6 6 6 6 7 7 8 8 8 8 7 7 8 9 9 8 8 8 8 8 8 8 7 8 8 8 8 8 9 9 9 9 9 8 8 7 7 6 6 7 7 6 5 5 6 7 7 8 10 11 12 11 11 11 9
0 7 8 7 6 6 7 7 6 7 7 7 7 7 7 6 6 5 5 3 4 3 4 5 4 4 3 4 5 5 5 5 5 6 6 7 7 7 7 8 8 9 9 9 9 10 9 8 8 9 9 9 9 9 9 9 9 9 9 9 9 9 10 9 9 9 10 7 7 9 10 9 9 8 8 7 6 6 7 7 9 10 9 10 11 11 7
7 9 7 7 7 6 4 3 4 5 5 7 6 6 6 6 6 5 5 5 4 4 3 4 3 4 3 4 4 5 5 5 5 6 7 8 8 9 10 10 10 9 10 10 11 11 11 9 9 9 9 10 9 10 9 9 10 10 10 11 10 12 11 11 11 10 10 10 10 9 9 9 9 9 9 9 8 7 6 5 3 5 6 8 11 9 6
5 5 8 9 4 5 6 5 6 6 5 5 5 4 4 3 3 3 2 3 3 2 4 4 4 4 4 5 6 6 6 6 8 8 9 10 11 11 10 10 11 10 11 11 11 11 11 10 10 10 10 9 10 10 10 10 10 11 11 11 12 12 11 11 11 10 10 10 10 9 9 9 10 10 9 7 8 7 5 8 4 1 3 6 5 4 4
2 5 8 3 4 5 5 7 6 6 4 4 4 4 3 3 2 3 4 4 4 3 4 4 4 5 5 6 7 7 7 8 8 10 10 10 10 9 9 9 9 9 9 10 10 11 10 10 10 11 11 11 11 11 11 11 12 13 13 13 12 11 11 11 11 12 13 13 13 12 11 10 9 10 9 8 12 12 10 2 4 5 6 8 9 7 4
8 4 7 4 2 4 6 6 5 5 3 2 3 2 2 2 2 3 4 4 4 4 2 2 4 6 7 8 9 9 9 10 10 10 10 10 9 8 8 8 9 10 10 10 10 11 10 10 10 10 10 9 9 9 9 9 10 11 12 12 13 13 13 13 12 11 13 14 13 14 14 13 12 11 10 11 7 9 9 8 7 7 7 7 7 5 6
6 5 6 6 6 6 5 5 4 4 2 0 1 0 1 1 1 3 5 3 3 2 3 4 4 4 6 7 7 8 8 8 8 8 9 7 6 7 7 8 9 9 9 9 9 9 8 8 9 10 11 11 11 11 11 11 10 11 11 11 11 12 11 12 13 13 13 13 13 13 14 13 13 13 14 13 12 8 5 5 7 7 8 8 7 7 6
7 6 6 5 5 5 4 4 4 3 4 2 2 1 2 2 6 4 1 2 2 1 3 3 4 4 5 6 6 6 6 6 6 6 6 5 6 6 7 7 8 8 9 9 9 9 9 10 10 10 10 11 10 10 10 10 10 11 11 11 11 11 11 11 11 11 11 12 12 13 13 13 13 13 13 13 13 12 10 6 5 5 6 7 7 7 6
6 6 6 5 4 3 3 2 0 5 2 1 1 0 1 1 4 2 1 1 2 2 3 3 4 4 5 5 5 5 5 6 6 5 5 5 6 6 6 7 8 9 9 8 8 8 9 9 9 9 10 10 9 10 10 10 10 11 11 12 12 12 12 11 12 13 13 13 13 13 13 12 12 12 12 12 12 12 12 12 9 7 6 6 5 5 5
5 3 1 2 0 2 3 3 2 4 3 3 2 1 0 1 1 2 2 1 2 2 1 2 3 5 5 5 5 5 5 5 5 5 5 5 5 6 6 8 8 8 7 7 7 7 8 8 8 9 10 9 9 9 9 9 9 10 11 11 11 11 11 10 10 11 12 12 12 12 13 13 12 11 11 10 10 11 12 11 11 10 8 6 6 6 6
4 3 2 2 2 2 2 3 4 4 3 2 1 1 1 2 1 2 2 1 1 2 2 2 3 4 5 5 4 4 4 5 5 5 4 5 5 6 6 7 8 7 6 6 7 7 8 8 9 9 10 10 10 10 9 9 9 9 9 9 9 9 9 9 10 10 10 11 12 12 10 7 9 10 10 9 9 9 9 10 11 9 9 5 7 6 7
4 4 3 2 3 3 4 5 4 4 4 4 3 2 2 2 2 1 1 1 2 2 1 2 3 4 5 5 4 4 4 5 5 4 4 4 5 5 6 7 7 5 4 5 6 7 8 8 9 10 10 11 11 10 10 10 9 9 9 9 9 9 8 9 9 9 10 10 11 10 10 9 7 8 10 10 9 8 7 6 7 7 8 8 7 5 7
5 4 3 3 3 3 4 3 3 4 4 4 3 3 2 2 2 1 1 1 1 1 1 3 4 5 5 5 4 4 4 4 4 4 4 5 5 6 6 6 5 5 6 7 8 8 8 9 9 9 10 11 11 11 10 9 8 8 8 7 7 7 6 6 8 8 8 8 8 8 8 8 7 7 7 7 6 5 6 6 7 7 8 10 8 8 7
7 6 6 4 4 5 4 3 4 4 4 5 5 5 4 3 4 2 2 2 0 1 2 3 4 4 4 4 4 4 5 4 3 2 2 3 4 4 4 5 4 6 6 7 7 8 8 8 9 9 10 10 10 10 9 9 8 7 7 7 6 7 6 8 8 7 7 6 6 6 4 5 6 6 7 7 8 7 5 6 7 7 7 8 7 8 8
6 5 5 5 5 5 5 4 5 5 5 5 4 4 2 2 2 2 2 2 2 2 2 2 2 2 2 2 1 2 4 4 4 2 2 4 5 4 5 4 3 5 5 5 6 7 7 8 9 9 9 9 10 9 9 8 7 6 7 7 6 6 7 8 7 7 6 6 5 5 3 1 3 5 5 6 6 5 5 5 7 7 7 9 8 6 6
4 2 2 1 4 3 4 5 5 5 5 5 6 4 3 3 2 2 2 2 2 2 2 2 2 2 1 1 2 2 3 5 2 1 5 4 5 5 5 5 4 4 3 5 5 6 6 8 8 9 9 9 9 9 9 9 8 7 7 7 7 7 7 7 8 8 7 7 6 4 3 0 2 3 3 3 4 4 4 6 6 7 5 4 4 5 9
1 1 2 2 3 2 2 3 5 6 6 6 6 4 3 2 2 2 1 3 3 2 1 0 1 0 2 2 3 3 2 1 2 3 3 4 5 6 5 5 4 4 4 4 5 6 7 7 9 10 10 8 8 8 7 8 8 8 8 7 8 7 7 7 7 8 8 8 7 6 5 4 3 3 3 4 3 2 3 5 4 5 4 4 5 7 8
4 3 3 3 3 1 1 3 4 6 7 6 2 1 4 4 3 3 3 4 3 2 1 1 1 1 2 3 3 3 3 1 2 2 3 3 4 3 4 5 5 4 4 2 5 7 8 7 9 11 10 6 7 8 8 9 7 8 8 8 8 8 8 8 7 6 6 7 7 7 6 6 5 3 3 3 4 5 4 5 4 5 5 6 7 8 8
4 3 3 3 2 3 3 3 4 6 6 6 6 6 5 4 4 2 2 2 1 1 2 2 2 2 3 3 1 1 3 1 1 1 1 1 1 1 2 3 3 4 4 2 6 9 7 7 11 16 11 5 6 7 9 10 7 6 7 9 9 9 9 9 9 8 8 7 7 7 6 7 7 8 7 7 7 7 6 6 7 7 7 7 7 8 9
4 3 3 3 2 4 4 4 5 5 5 5 4 4 3 3 2 2 2 1 1 2 2 3 3 2 2 2 2 3 2 1 2 3 3 2 1 1 1 2 2 3 3 4 6 8 6 9 12 9 6 6 6 6 8 10 13 8 6 7 8 8 9 9 10 10 9 9 8 8 8 8 8 8 8 8 8 8 8 8 8 8 7 8 8 8 8
5 3 3 3 3 4 4 5 6 5 5 5 5 4 3 3 2 3 3 3 2 3 5 5 4 4 4 4 2 2 2 3 3 3 2 2 1 0 1 1 2 2 3 4 5 4 6 9 9 7 6 6 7 5 8 9 13 6 6 6 6 7 8 8 9 9 10 10 10 10 10 10 11 11 10 11 11 10 9 9 8 8 7 6 6 6 6
4 4 4 5 5 5 5 6 6 5 5 4 4 4 4 3 3 3 3 3 2 2 3 3 4 3 2 1 1 1 1 2 3 2 2 2 1 1 3 3 1 2 4 7 6 3 5 10 8 5 5 6 7 7 6 8 10 5 6 5 6 7 7 7 7 8 8 9 10 10 10 11 10 10 9 9 10 10 9 10 10 9 9 8 8 7 8
3 3 4 5 5 5 6 6 6 6 5 5 5 4 3 3 3 4 3 3 2 2 2 3 3 2 1 0 1 1 2 3 2 1 1 1 1 0 0 1 2 2 5 6 5 6 6 6 6 6 6 6 6 8 7 7 5 5 5 6 6 7 7 7 7 7 7 7 8 8 8 8 9 9 9 9 9 8 9 9 9 9 8 8 8 8 8
4 4 4 5 5 6 6 6 6 6 6 6 5 5 4 3 3 4 3 2 2 2 2 2 1 3 1 1 1 2 3 3 3 2 1 1 1 1 1 2 2 3 6 7 6 5 3 3 4 6 7 7 5 8 10 8 4 5 5 5 6 6 6 6 7 7 7 7 7 7 7 7 8 7 8 8 8 8 8 8 8 9 9 8 8 8 7
6 5 5 5 5 6 6 6 6 6 6 6 6 5 4 3 3 3 3 3 2 2 2 2 5 4 4 3 2 3 3 2 3 2 2 2 0 1 2 2 2 4 5 5 4 3 3 3 4 5 8 8 7 11 13 4 4 4 4 5 5 5 6 6 6 6 7 7 7 7 7 7 6 6 7 7 6 7 7 7 8 8 8 8 8 7 7
7 6 5 5 5 5 6 6 6 6 7 6 6 5 5 4 3 3 3 4 3 2 3 3 3 3 3 3 3 3 3 3 3 3 3 3 3 3 2 2 2 3 1 5 2 2 3 3 4 7 8 9 9 11 6 4 4 4 4 5 5 5 5 6 6 6 6 7 7 7 7 7 6 6 7 6 6 6 6 6 6 7 7 7 7 7 7
8 7 7 6 5 5 5 5 6 7 6 6 6 6 6 5 4 3 3 4 3 2 2 3 3 3 3 4 3 2 1 1 2 2 3 2 2 3 4 3 1 1 2 7 3 2 3 4 5 7 7 9 9 11 4 4 4 4 4 4 5 5 5 5 6 6 7 7 7 7 7 7 7 6 6 7 8 6 6 6 6 6 6 6 6 6 6
9 9 8 7 7 7 6 5 5 5 5 5 6 7 7 7 6 4 4 4 4 4 3 3 3 4 4 3 3 2 2 2 2 2 2 2 2 3 5 3 3 3 5 7 2 1 4 4 3 5 7 7 10 6 3 4 4 4 4 4 5 5 5 5 5 6 6 6 6 6 6 6 6 6 6 5 6 6 6 5 6 6 5 6 6 6 6
8 8 8 8 8 8 7 5 5 5 5 6 6 6 6 8 7 6 5 4 4 4 4 3 3 3 4 4 3 3 3 3 3 3 3 2 2 2 6 4 2 1 4 2 2 2 4 2 3 5 6 7 10 3 3 3 4 4 4 5 5 5 5 6 6 6 6 6 7 7 7 7 5 6 6 5 5 5 5 5 5 5 5 5 5 6 5
6 8 8 8 8 7 7 6 6 7 8 7 6 5 5 6 7 7 6 5 5 5 5 4 3 4 4 4 4 4 3 2 1 3 3 3 3 3 4 3 4 5 3 4 4 4 3 3 4 6 5 8 5 3 3 3 3 4 4 5 5 5 4 3 4 4 5 6 5 6 6 6 6 7 6 6 5 5 5 4 4 4 4 4 4 4 4
5 6 6 6 7 7 7 7 7 7 8 7 7 6 5 5 6 6 6 6 6 6 6 5 5 5 5 5 4 4 3 3 3 1 3 3 3 3 4 7 6 5 6 2 2 2 3 2 3 4 6 9 1 3 3 4 4 4 4 4 4 4 4 4 4 4 4 5 6 6 6 6 7 6 6 6 6 6 6 6 5 5 5 5 5 5 5
5 6 5 5 6 6 6 6 6 7 7 6 6 5 5 5 5 6 6 7 6 6 5 5 5 5 5 5 6 5 4 4 4 2 2 3 3 3 4 4 5 2 5 0 3 3 5 3 4 3 5 0 2 2 3 3 4 4 4 5 6 5 7 7 7 7 7 6 6 6 6 5 6 7 7 5 6 6 6 6 7 7 7 6 5 5 5
4 6 6 6 6 6 7 7 6 6 5 4 4 4 5 6 6 5 6 6 6 6 6 6 5 5 5 5 5 5 5 5 5 5 3 4 4 3 4 4 5 5 4 3 2 2 2 3 2 3 1 0 1 2 2 3 3 3 3 3 3 4 4 5 5 5 6 5 5 5 5 5 5 6 5 5 5 6 6 5 5 5 5 5 5 5 5
5 4 4 5 6 6 6 7 7 6 5 4 4 5 5 6 6 6 6 6 7 7 7 7 6 6 6 6 6 6 6 6 5 6 5 4 5 5 5 5 4 5 5 4 2 2 1 2 3 1 3 1 1 3 4 0 2 2 3 4 3 3 4 4 4 4 3 4 4 4 5 5 4 5 5 5 5 5 4 4 4 4 5 5 6 6 6
Wind_Direction
54 44 64 70 71 61 74 74 68 64 55 66 82 43 13 335 291 290 114 123 108 100 89 108 100 100 100 108 103 115 115 117 120 120 110 104 99 94 91 88 87 86 85 80 79 79 86 93 93 95 101 100 96 103 111 115 126 121 137 178 171 180 180 197 200 200 200 210 218 216 189 215 224 214 228 229 221 202 193 190 194 192 185 191 192 193 188
65 35 30 67 69 54 75 70 75 67 61 58 62 61 45 48 75 81 96 89 85 69 87 98 93 90 105 112 119 115 115 116 117 110 105 103 96 90 89 87 83 81 80 79 76 72 69 69 75 80 84 85 90 97 94 101 106 107 121 112 118 143 166 164 181 198 196 194 209 198 184 209 215 233 221 213 202 193 198 200 190 213 203 201 206 207 201
88 52 32 52 80 39 50 22 13 26 37 74 65 75 53 75 83 93 107 97 89 70 87 100 109 109 103 106 105 105 108 110 103 104 101 98 95 94 92 90 87 84 81 79 77 74 71 68 67 68 71 79 86 86 92 95 87 87 90 94 93 90 99 94 106 141 172 184 194 197 203 189 200 213 209 203 201 198 200 207 204 207 209 205 209 213 210
190 183 142 100 54 16 345 313 327 355 6 54 35 38 2 351 103 123 132 113 101 105 112 108 106 104 97 93 93 95 96 93 95 95 95 94 94 93 92 89 87 82 78 75 73 73 71 70 68 67 68 74 72 73 76 87 89 91 90 92 96 100 99 120 121 135 150 171 200 196 203 202 194 202 203 204 203 202 199 203 201 198 197 202 200 203 219
208 165 154 135 251 272 267 227 125 62 68 81 93 63 35 17 332 221 161 86 109 124 127 114 100 91 81 72 73 83 79 74 80 84 83 82 81 82 82 81 80 77 74 70 67 67 70 67 69 69 71 68 65 70 75 81 91 88 83 84 90 87 91 100 103 141 192 210 201 204 218 217 212 206 213 215 208 194 197 203 205 204 207 205 210 211 219
179 155 177 69 223 226 222 55 251 336 114 176 149 78 32 29 359 38 52 105 117 126 122 111 102 84 73 73 56 48 75 89 74 61 66 70 72 68 66 66 64 64 65 64 61 60 62 61 61 63 60 66 73 70 77 82 81 85 88 87 82 85 90 95 111 124 147 155 195 213 223 212 207 204 211 213 202 197 189 185 197 207 213 218 218 209 204
187 151 172 209 224 229 55 292 94 153 107 106 102 92 67 76 95 107 106 109 105 95 97 99 97 92 83 70 61 47 41 54 62 63 55 51 58 60 59 54 52 55 58 58 57 52 47 51 54 53 49 46 58 69 70 77 74 77 81 82 84 83 81 83 88 94 115 130 147 152 178 182 194 208 209 203 192 185 200 209 201 210 207 203 184 167 143
112 176 185 198 215 59 91 84 99 91 120 119 113 80 65 54 78 115 110 111 112 108 105 104 105 104 100 90 83 80 62 48 60 60 50 26 20 34 39 43 42 41 44 46 44 41 44 46 44 44 45 35 42 47 55 66 72 66 70 78 73 65 67 54 51 55 64 86 117 158 174 184 195 196 194 200 208 202 197 193 187 135 270 179 169 163 147
213 203 207 200 104 155 117 136 128 188 137 203 270 134 79 57 42 126 122 120 120 120 119 122 123 120 109 91 78 70 76 94 107 106 107 111 83 24 24 36 40 33 32 43 41 39 30 27 32 35 32 34 46 48 36 14 28 53 48 48 51 54 50 46 38 29 23 79 118 196 190 198 197 191 186 191 188 186 182 185 179 179 176 167 158 146 151
287 236 198 174 196 223 146 97 110 38 15 348 307 98 106 107 87 118 129 126 126 127 129 133 138 159 142 101 87 66 64 62 68 68 70 72 78 86 80 51 44 38 29 26 44 39 40 40 27 21 15 23 32 45 47 36 29 30 34 39 22 18 14 16 10 15 13 349 289 182 203 199 176 179 183 184 178 182 178 176 172 164 159 153 152 152 153
193 223 242 233 232 92 74 109 111 57 26 287 305 251 151 131 128 122 132 126 132 132 139 140 180 230 194 107 96 66 56 57 47 52 51 48 50 48 40 31 28 31 28 26 22 29 27 25 19 11 7 11 14 20 25 27 33 40 32 25 16 10 356 344 335 349 344 351 350 319 255 167 170 173 182 179 172 178 173 173 165 165 166 160 157 156 146
198 215 220 228 26 81 118 81 39 15 2 74 258 226 179 139 140 128 138 135 132 129 107 198 61 349 206 125 93 66 62 60 52 41 40 39 36 35 34 30 15 17 19 17 20 19 21 16 11 5 1 3 4 6 3 6 19 27 24 13 1 358 351 348 341 336 327 320 326 328 334 338 291 242 200 188 180 186 182 188 177 176 177 166 166 159 148
212 217 229 202 112 87 90 58 34 44 229 276 197 238 104 130 118 113 108 108 104 120 145 165 94 72 63 79 87 69 49 47 46 42 36 33 26 26 24 23 10 6 12 14 11 12 11 5 3 2 356 354 347 357 347 349 13 6 358 353 348 346 342 342 352 357 358 353 333 317 309 317 315 284 255 221 199 198 193 196 181 178 182 177 174 164 164
224 212 226 210 69 30 13 55 24 348 186 184 226 79 128 111 111 99 95 90 78 74 70 75 84 86 77 76 68 59 47 40 38 23 24 20 20 21 21 15 16 3 353 1 2 3 1 355 355 352 351 343 334 342 330 337 357 344 338 339 330 330 326 332 348 347 0 3 346 329 315 300 285 269 249 245 228 219 213 204 194 187 185 185 183 172 168
320 220 236 222 236 94 337 13 143 332 260 66 107 121 108 113 104 100 84 75 70 71 83 73 74 76 66 55 43 41 37 27 20 15 12 10 4 5 0 356 10 357 343 347 351 346 342 344 343 341 339 328 323 320 318 326 331 329 327 316 315 316 320 313 322 321 331 342 345 336 330 314 290 269 260 242 234 226 222 216 206 198 192 190 184 178 178
270 230 220 292 35 86 27 297 158 70 71 108 114 113 112 105 120 107 96 72 62 60 61 67 67 59 48 42 31 17 21 10 5 3 0 359 353 352 350 346 354 346 332 336 332 332 330 335 332 328 325 315 313 312 301 317 318 308 303 304 308 302 301 299 301 301 303 299 294 297 316 311 287 269 256 248 240 230 222 216 210 209 215 208 205 195 194
6 27 67 89 107 80 82 75 88 93 99 104 108 107 113 116 95 78 87 74 65 48 47 60 45 50 42 22 17 9 358 355 355 352 351 346 346 341 340 337 347 336 329 323 319 315 319 323 322 315 311 300 300 290 294 308 299 296 295 293 287 286 282 284 285 287 289 290 291 284 288 278 280 267 253 244 238 229 224 222 220 213 216 215 208 206 207
92 77 80 102 109 101 93 90 91 96 89 77 83 89 88 63 57 47 61 62 55 48 32 23 42 35 18 6 5 3 356 349 351 344 341 344 342 338 334 333 341 328 320 317 311 314 315 314 309 303 297 295 286 284 287 287 286 287 287 285 283 279 280 277 277 275 275 277 274 271 271 275 266 257 255 247 244 237 229 226 226 228 213 220 221 226 232
180 95 127 106 109 116 101 90 86 83 79 83 82 83 81 87 85 81 75 73 76 69 57 52 34 28 21 5 1 355 344 345 342 341 338 341 336 333 329 328 324 319 322 316 321 321 319 319 315 308 300 291 287 285 282 283 283 281 280 279 277 275 273 273 270 270 268 269 268 258 263 263 258 253 246 244 237 239 241 240 238 236 239 239 236 235 235
279 123 132 121 102 107 127 127 123 113 108 107 99 103 110 110 105 103 101 109 74 46 57 34 13 360 15 7 1 351 347 346 340 340 340 334 333 328 325 319 324 316 315 316 317 319 316 319 314 310 302 295 291 290 288 285 282 280 276 274 275 275 276 275 272 269 267 250 250 262 260 253 250 244 240 240 241 240 240 238 237 233 233 235 234 235 222
98 111 123 132 135 133 130 129 71 97 111 111 116 110 118 122 110 99 83 59 44 42 37 19 354 342 8 21 3 345 340 343 342 344 333 328 321 324 323 328 324 319 318 318 317 316 314 312 309 304 303 298 294 291 288 287 285 280 277 276 274 271 271 269 268 267 265 265 261 261 259 253 248 249 247 238 237 242 239 256 295 303 287 249 231 233 217
164 159 150 168 167 168 152 146 136 119 105 112 116 120 102 96 86 69 65 74 65 64 45 11 8 2 8 6 356 344 342 342 344 337 330 326 326 324 325 321 319 317 317 315 315 311 308 307 306 304 302 298 295 291 290 287 284 279 278 278 275 272 268 268 269 270 268 265 265 260 259 257 254 251 232 235 265 262 246 109 91 85 274 279 325 336 247
165 110 137 142 35 52 98 130 132 134 124 118 121 105 95 71 36 25 5 358 356 13 36 42 22 13 360 351 349 341 341 342 337 330 331 329 326 327 327 324 323 324 320 318 313 311 310 312 308 306 304 304 301 296 292 286 282 279 276 273 271 272 275 272 272 270 268 268 267 265 265 268 264 262 261 194 208 225 244 189 151 178 218 254 280 267 287
71 121 139 89 34 90 108 111 122 134 127 110 99 67 55 350 2 342 348 354 352 352 10 6 10 349 344 342 342 335 335 336 336 333 334 331 331 331 330 329 326 324 324 323 320 317 317 314 313 314 312 309 308 307 304 301 297 290 282 275 273 272 271 268 269 270 267 266 267 266 262 261 258 261 254 264 237 196 215 202 201 211 227 232 247 243 230
105 91 98 81 87 91 94 108 108 108 128 301 1 93 34 322 343 353 318 330 348 335 325 343 338 355 337 335 330 329 327 326 326 330 322 322 325 322 322 324 325 326 323 320 317 318 317 316 311 309 305 302 301 299 297 294 291 287 285 286 284 282 279 279 277 267 264 263 265 264 262 258 260 257 259 254 259 248 176 219 232 223 217 217 215 227 215
100 105 102 95 94 101 119 129 135 135 139 165 148 182 115 36 15 319 346 337 327 341 316 326 328 340 338 326 330 323 318 320 323 309 309 319 319 317 320 322 321 316 316 316 315 314 315 315 311 306 302 301 305 303 300 295 289 282 277 273 271 272 276 278 277 280 275 269 264 263 261 264 261 262 256 254 253 255 254 206 183 203 191 193 201 189 199
106 117 129 134 131 129 172 260 88 153 168 171 193 153 336 63 159 260 30 308 316 309 311 327 328 329 325 330 326 328 322 317 311 310 322 318 322 323 321 320 320 320 318 315 312 315 314 307 306 306 305 308 310 308 302 296 289 284 279 275 273 271 261 260 270 275 272 267 265 261 263 261 259 255 258 260 259 258 252 254 250 225 213 175 157 181 189
121 121 342 332 329 143 180 154 143 156 180 173 186 232 261 302 286 261 252 288 264 262 280 301 324 330 329 338 337 329 329 323 334 330 327 330 334 333 328 329 323 322 318 314 311 312 312 313 313 312 309 310 310 308 304 298 292 286 285 285 283 284 284 267 263 263 262 264 265 264 259 253 251 251 254 257 255 251 252 254 253 255 255 209 150 93 63
143 135 116 64 57 75 113 133 168 182 181 163 190 224 211 228 207 276 295 299 299 251 262 317 325 324 331 334 343 334 328 328 334 338 336 340 341 335 330 324 322 318 312 314 316 318 317 318 319 318 314 314 312 311 308 304 300 296 293 289 285 283 280 282 280 277 276 273 271 265 267 275 270 252 241 244 245 254 255 250 241 244 251 209 124 128 125
149 141 150 138 137 156 160 172 188 197 187 185 204 201 213 248 257 292 338 193 217 261 320 319 325 343 343 337 347 343 325 324 333 333 343 344 341 338 331 331 322 319 318 324 328 327 325 326 328 323 318 316 316 318 320 316 312 306 300 294 289 285 287 295 298 293 285 276 268 262 251 242 248 255 248 235 233 239 247 254 265 250 233 229 201 197 162
148 155 157 156 172 185 187 203 218 205 204 194 213 213 182 211 247 245 189 196 216 265 344 325 343 339 347 351 349 335 330 327 329 336 353 351 337 339 337 331 326 330 328 322 326 326 327 330 326 317 313 315 319 323 326 326 320 314 306 304 302 305 289 282 280 279 274 275 275 269 255 237 224 223 235 236 229 222 228 243 244 247 230 230 215 217 166
148 161 173 185 195 203 216 243 221 216 204 210 212 215 204 206 213 216 169 205 259 307 300 330 341 348 337 354 352 342 333 326 308 302 337 346 329 319 314 314 308 304 298 306 314 322 326 327 327 321 317 319 322 332 341 343 341 332 328 330 332 328 333 326 323 317 298 299 289 277 259 236 212 209 213 218 214 207 217 233 239 237 228 228 217 215 156
161 171 192 203 203 219 247 237 231 224 216 211 214 224 193 211 226 213 220 226 246 284 292 322 327 323 327 329 311 290 290 287 257 223 14 339 324 317 325 321 305 296 295 308 313 319 338 343 343 343 341 342 348 355 351 358 4 351 348 350 350 357 349 349 339 325 338 333 331 331 310 241 222 208 203 201 203 207 212 223 232 229 221 219 209 169 131
203 266 343 196 208 243 257 240 227 225 207 209 207 196 197 201 208 221 225 232 253 271 305 319 309 303 295 261 253 261 281 287 230 84 0 329 324 329 326 317 309 297 301 315 330 350 354 346 350 340 340 344 352 358 359 357 11 18 8 3 6 3 5 1 1 10 2 1 350 357 4 129 179 173 166 173 179 185 222 232 227 221 205 169 141 94 81
225 168 151 151 173 242 282 256 218 207 202 195 198 193 208 214 238 247 303 293 276 273 282 293 269 207 228 214 240 232 232 302 321 309 307 322 325 322 317 324 321 316 324 330 353 342 346 342 359 341 332 334 356 1 5 342 351 16 19 18 12 11 14 17 22 22 21 21 17 23 24 38 58 85 125 138 145 185 242 240 193 153 135 137 133 116 105
193 177 169 162 185 252 221 209 200 194 193 191 173 191 216 215 242 274 252 250 242 242 241 198 181 184 201 207 218 200 211 194 259 275 286 305 307 319 338 329 335 327 327 323 4 350 331 354 359 336 309 328 2 2 14 349 327 8 19 21 30 27 26 24 24 39 40 39 41 44 51 62 72 82 112 133 143 148 132 120 112 127 130 122 111 105 101
203 213 186 198 192 201 198 195 188 184 189 177 172 192 212 221 232 244 261 266 243 224 213 189 182 196 219 213 249 205 220 220 294 331 324 325 331 359 331 327 316 321 312 341 0 337 330 349 343 312 298 10 7 9 10 352 336 348 17 25 31 31 32 35 32 31 33 40 41 45 52 57 63 69 77 83 98 107 109 112 111 107 106 107 110 118 118
188 202 186 205 191 196 194 184 180 179 179 180 189 201 228 257 246 262 280 286 224 192 183 184 198 202 189 163 202 203 231 217 239 243 254 262 280 333 323 355 348 345 345 360 331 317 337 338 319 312 4 8 3 9 10 354 324 320 36 24 31 33 34 35 38 38 38 42 47 52 53 58 61 62 62 69 80 88 94 99 100 105 108 110 110 112 118
180 186 196 200 206 185 169 167 175 182 187 196 200 201 200 231 277 283 273 267 221 185 192 198 192 199 199 211 211 186 203 217 222 229 237 257 233 54 46 11 4 335 333 324 307 304 343 338 323 323 357 5 355 5 13 356 326 350 27 40 38 39 36 41 37 44 43 47 48 51 57 58 62 63 66 67 71 71 63 58 59 71 82 83 80 74 69
187 192 189 183 188 187 182 177 183 189 199 211 213 209 193 213 240 266 281 270 214 199 247 203 205 216 204 213 249 216 201 230 231 201 190 188 169 235 214 183 34 4 359 321 309 344 337 303 311 347 356 4 8 359 9 356 318 4 24 37 43 48 43 40 42 45 49 50 54 54 61 62 65 67 66 66 65 66 67 66 61 59 58 61 63 64 66
193 182 178 186 186 189 193 186 191 200 205 208 208 209 209 241 277 292 292 284 226 205 244 229 225 218 215 83 4 280 214 211 218 131 84 224 208 245 276 91 42 3 14 345 338 319 311 328 360 346 6 352 30 356 341 348 348 33 33 41 45 53 55 49 49 46 50 50 52 52 56 60 64 68 70 71 70 70 64 60 57 59 61 67 69 70 72
192 186 184 191 192 193 198 200 204 204 203 206 209 217 219 231 259 285 299 285 265 238 241 224 48 341 70 114 147 236 228 207 181 172 172 237 331 307 271 79 32 31 6 310 278 268 331 5 12 20 5 343 359 9 327 305 8 28 44 47 52 54 61 63 62 61 59 54 53 58 58 62 67 71 70 72 71 69 66 67 69 70 73 74 78 80 85
198 198 196 197 199 199 202 204 208 214 216 212 209 213 220 228 252 258 246 226 239 235 233 227 141 182 207 195 194 220 229 222 221 185 188 153 121 11 324 0 340 58 352 312 313 327 11 17 14 27 357 336 332 325 299 317 28 25 47 59 55 55 60 54 55 58 58 62 63 62 62 65 67 68 69 71 73 75 80 82 85 87 90 95 100 106 107
205 208 202 201 202 202 207 209 213 214 222 221 219 219 220 222 237 258 240 219 213 218 243 222 215 211 207 198 213 223 200 205 218 210 220 176 175 174 218 308 347 80 57 308 324 357 33 30 38 358 330 318 316 314 325 32 18 42 45 48 51 47 49 63 63 59 60 59 60 63 66 68 68 69 70 73 73 71 71 78 85 90 97 102 105 106 105
210 211 211 209 202 198 206 214 216 221 224 229 226 221 225 231 231 232 248 231 224 204 211 229 226 222 214 210 222 237 258 215 236 224 227 218 226 149 136 182 213 311 39 313 298 18 48 33 9 336 320 315 317 309 349 37 35 39 40 49 49 54 60 58 63 63 62 63 64 62 59 59 64 69 74 71 69 73 74 74 74 76 81 87 92 99 102
217 215 214 217 218 213 211 215 217 222 227 226 230 225 227 238 240 231 227 240 228 211 209 206 219 219 225 220 218 216 230 234 217 244 291 324 8 53 71 20 35 42 327 295 337 31 78 76 347 333 323 321 314 294 47 33 46 51 55 58 63 63 64 66 65 69 65 61 59 59 62 62 58 54 54 59 65 70 71 72 79 76 77 76 76 79 86
223 218 214 215 220 225 222 214 206 214 221 226 233 237 225 224 231 233 226 227 239 228 210 199 201 209 209 218 219 215 214 206 190 193 210 187 135 130 102 106 103 336 279 291 31 30 26 43 6 340 323 323 307 357 39 47 51 56 58 64 67 72 70 75 76 82 82 80 80 79 70 65 67 72 70 70 68 67 68 67 72 77 80 86 93 92 91
233 229 223 219 223 217 206 200 201 212 219 228 238 244 237 235 232 234 234 224 224 229 224 215 203 192 197 203 213 234 260 270 235 174 178 191 170 159 190 195 125 111 119 144 122 91 74 354 351 320 318 301 289 56 40 49 49 57 57 59 54 59 62 71 74 79 85 89 90 81 82 81 76 70 71 70 72 70 71 75 78 75 75 75 75 74 77
242 247 241 230 218 202 201 208 214 219 226 228 234 241 237 234 237 239 236 229 230 231 230 222 213 196 189 195 206 210 203 223 282 355 132 175 171 181 131 107 128 189 235 232 144 129 83 351 331 324 300 286 341 56 54 63 57 58 56 54 59 55 56 57 63 70 74 72 71 76 85 86 88 87 83 78 78 76 79 81 83 87 93 95 94 88 84
212 221 224 223 210 201 200 204 216 224 227 230 235 236 234 232 238 232 228 228 230 232 237 223 210 198 195 183 192 198 190 189 195 214 181 176 185 175 156 173 158 202 308 350 137 125 128 204 236 259 282 299 60 45 63 71 82 77 82 80 77 77 73 78 74 71 75 75 76 78 79 80 86 90 90 86 81 81 81 83 84 88 80 76 84 87 94
216 215 220 215 225 222 206 213 222 224 226 216 221 216 211 224 240 245 244 239 232 223 235 234 229 212 201 193 188 191 185 186 185 183 203 183 190 173 187 164 156 173 179 197 178 174 165 185 144 171 213 116 86 90 88 96 105 104 96 99 101 105 104 88 73 69 63 68 78 78 77 80 75 80 85 91 94 97 100 101 101 95 90 89 91 92 92
261 251 227 218 227 230 227 222 224 225 228 223 217 204 214 227 235 236 236 217 235 240 233 236 233 220 213 202 195 191 186 188 178 177 196 193 187 184 174 191 179 171 195 202 167 170 165 121 134 322 317 208 115 103 98 347 115 98 94 96 95 88 85 94 102 97 98 99 90 88 85 83 94 95 89 87 90 88 85 84 82 83 85 86 88 90 96